Rbgn^[z[y[W
メイン
   新天体発見情報
     Comet C/2024 PN7 (PANSTARRS)
投稿するにはまず登録を

スレッド表示 | 新しいものから 前のトピック | 次のトピック | 下へ
投稿者 スレッド
佐藤裕久
投稿日時: 2025-1-16 23:03
モデレータ
登録日: 2005-6-12
居住地: 日本
投稿: 2683
オンライン
Comet C/2024 PN7 (PANSTARRS)

Comet C/2024 PN7 (PANSTARRS)

2024年8月15日、HaleakalaのPan-STARRS2 1.8-m Ritchey-Chretien 反射望遠鏡で得た画像から小惑星状
天体が発見されたが、他の位置観測者によって彗星活動があることがわかった。
2024年9月5日、小惑星符号 2024 PN7 (MPEC 2024-Q29)で発表される前に、小惑星センターのNEOCP web-
pageに掲載された(一時期PCCP webpageにも掲載された)。
A. Hale (Cloudcroft, ニューメキシコ州)は、10月30.9日UT、カナリア諸島のTenerifeにある0.35-m f/3 
Cassegrain反射望遠鏡で得た180-秒CCD露光では、やや拡散した5"のコマとやや集光した天体が見えたと
報告した。2024年10月31.9日、同じ望遠鏡で、300-秒の画像では、同程度の明るさの恒星よりわずかに
拡散しているように見えるが、コマは見えない。 
さらに、11月1.83 日、Haleが、Tenerifeの1.0-m f/8 Schmidt-Cassegrain反射望遠鏡を遠隔撮影した画像
では、中央の集光領域は小さくかすかな5"ほどの拡散したコマに囲まれている。集光領域はコマの西側に
向かってやや中心から外れており、短い東向きの尾が始まったように見える。
佐藤英貴氏(東京都文京区)は、2024年8月29.47日、Utah Desert Remote 天文台(Beryl Junction 近郊, 
ユタ州, 米国, 遠隔操作)の0.43-m f/6.8 アストログラフで24枚のスタックした30-秒CCD露出では、恒星
状にしか見えない。5".7の円形範囲で測定した光度は19.4等と観測した。この天体はHaleの報告により
PCCP webpageに戻され、その後、佐藤氏は2024年11月9.1日、同じ望遠鏡で更に13枚のスタックした60-秒
CCD露出を得た、強く集光した8"コマが見え、尾はない。5".7の円形範囲で測定した光度は再び19.4等と
観測した。 佐藤氏はさらに、11月4.15-4.16日、Sierra Remote天文台 (Auberry近郊, カリフォルニア州, 
米国, 遠隔操作)の0.61-m f/6.5 アストログラフで、15枚のスタックした60-秒CCD露光では、強く集光し
た7"のコマが見えるが尾はない。3".8の円形範囲で測定した光度は19.1等と観測した。吉本勝己氏 (山口
県熊毛郡平生町)は、2024年11月6.4日、0.20-m f/8 Ritchey-Chretien 反射望遠鏡で得たCMOS画像で、全
光度18.7等のかすかなコマの存在を示唆した。 11月21.4日、吉本氏が得た39枚のスタックした60-秒の
フォローアップ画像は、この天体は間違いなく彗星で、直径14 "の集光した拡散した14"のコマがあり、
南から東に拡散し伸びている。全光度は17.7等であった。

彗星機能の報告は次のとおり、

OC   Date        Reporter            Coma    Tail   PA   Comet     Date
                                                        (T/P)   Reported
157  2024-09-01  R. Haver           10"                   P   2024-09-01.46
Z17  2024-10-30  A. Hale             5"                   P   2024-10-31.22
Z17  2024-10-31  A. Hale                                  P   2024-10-31.93
Z24  2024-11-01  A. Hale             5"                   T   2024-11-01.88
W62  2024-11-02  J. Maikner          7"                   T   2024-11-02.06
204  2024-11-02  A. Aletti           4"                   P   2024-11-04.61
G00  2024-11-04  M. Jaeger           9"                   P   2024-11-05.34
126  2024-11-04  L. Sannino          3"                   P   2024-11-04.80
P87  2024-11-21  K. Yoshimoto       14"                   T   2024-11-21.67
204  2024-11-22  A. Aletti           5"                   P   2024-11-25.92
V38  2024-11-27  A. Hale             5"                   P   2024-11-27.80

発見位置は次のとおり(NEOCP P21Xld3)、

     2024 UT             R.A. (2000) Decl.       Mag.
     Aug. 15.44264    0 55 51.14   +20 17 04.5   20.0
          15.46248    0 55 48.33   +20 17 42.5   19.8
          15.47240    0 55 46.93   +20 18 01.6   19.9
          15.52943    0 55 38.81   +20 19 50.9   19.9
          15.52944    0 55 38.80   +20 19 51.0   20.1
          15.53008    0 55 38.72   +20 19 52.2   19.9

MPCの楕円軌道要素、位置推算表は次のとおり、

Orbital elements:
    C/2024 PN7 (PANSTARRS)                                                      
Epoch 2024 Nov. 26.0 TT = JDT 2460640.5                                         
T 2024 Dec. 6.44070 TT                                  Veres                   
q   1.5245067            (2000.0)            P               Q                  
z  +0.0148673      Peri.   74.27438     +0.26631677     -0.96357981             
 +/-0.0000127      Node   358.58188     -0.55337287     -0.13222411             
e   0.9773347      Incl.  101.21002     +0.78921090     +0.23244513             
From 232 observations 2024 Aug. 15-Nov. 27, mean residual 0".5.                 
                                                                                
Ephemeris:
Date    TT    R. A. (2000) Decl.     Delta      r    Elong.  Phase   m1
2024 12 09    18 18 07.7 +25 37 21   1.9255  1.5249    51.7    30.4  18.5
...
2024 12 24    18 14 14.2 +26 10 29   1.9870  1.5435    49.6    29.0  18.6
...
2025 01 01    18 12 21.9 +26 54 39   1.9921  1.5644    50.6    29.0  18.6
...
2025 01 07    18 10 47.2 +27 40 34   1.9837  1.5848    52.2    29.4  18.7
2025 01 08    18 10 29.7 +27 49 20   1.9813  1.5886    52.6    29.4  18.7
2025 01 09    18 10 11.7 +27 58 25   1.9786  1.5925    52.9    29.5  18.7
...
2025 01 15    18 08 08.8 +28 59 52   1.9572  1.6179    55.5    30.1  18.7
...
2025 01 23    18 04 30.9 +30 41 23   1.9150  1.6573    59.9    30.9  18.8
...
2025 02 07    17 53 00.2 +34 58 53   1.8034  1.7458    70.7    32.2  18.9

(MPEC 2025-A145、CBET 5491)

スレッド表示 | 新しいものから 前のトピック | 次のトピック | トップ

投稿するにはまず登録を
 
© 1999 Tsutomu Seki.